Overview Statistics Trail Chart Weather Telemetry Raw packets
 

This is the latest recevied weather packets stored in our database for station/object KY0TEQ-13. If no packets are shown the sender has not sent any weather packets the latest 10 day(s).

<< 11 12 13 14 15 16 17 >>
Time Temp. Humidity Pressure Rain* Wind** Luminosity Snow
1788611968 11.67° C 65% 1309.6 hPa 0 mm - 1 W/m² -
1788611665 12.22° C 63% 1309.7 hPa 0 mm - 1 W/m² -
1788611360 12.22° C 63% 1309.4 hPa 0 mm - 0 W/m² -
1788611059 12.22° C 63% 1309.6 hPa 0 mm - 0 W/m² -
1788610755 11.11° C 67% 1309.3 hPa 0 mm - 0 W/m² -
1788610450 11.67° C 65% 1309.3 hPa 0 mm - 0 W/m² -
1788610144 12.22° C 64% 1309.1 hPa 0 mm - 0 W/m² -
1788609843 11.67° C 65% 1309.3 hPa 0 mm - 0 W/m² -
1788609538 11.11° C 67% 1309.1 hPa 0 mm - 0 W/m² -
1788609238 11.11° C 66% 1309.4 hPa 0 mm - 0 W/m² -
1788608927 11.67° C 65% 1309.5 hPa 0 mm - 0 W/m² -
1788608627 11.11° C 67% 1309.5 hPa 0 mm - 0 W/m² -
1788608325 10.56° C 70% 1309.5 hPa 0 mm - 0 W/m² -
1788608021 11.11° C 69% 1309.3 hPa 0 mm - 0 W/m² -
1788607716 11.67° C 67% 1309.5 hPa 0 mm - 0 W/m² -
1788607412 11.67° C 66% 1309.4 hPa 0 mm - 0 W/m² -
1788607107 12.22° C 65% 1309.5 hPa 0 mm - 0 W/m² -
1788606807 12.22° C 65% 1309.5 hPa 0 mm - 0 W/m² -
1788606506 12.22° C 66% 1309.5 hPa 0 mm - 0 W/m² -
1788606200 11.67° C 67% 1309.5 hPa 0 mm - 0 W/m² -
1788605896 12.22° C 66% 1309.4 hPa 0 mm - 0 W/m² -
1788605595 12.22° C 65% 1309.4 hPa 0 mm - 0 W/m² -
1788605289 12.22° C 65% 1309.3 hPa 0 mm - 0 W/m² -
1788604986 12.22° C 65% 1309.3 hPa 0 mm - 0 W/m² -
1788604685 12.22° C 64% 1309.3 hPa 0 mm - 0 W/m² -

* Rain latest hour (hover to see other rain measurements)
** Current wind speed in m/s (hover to see current wind gust speed)